Flag for U.S.A. Weather past 2 weeks in Charleston, West Virginia, U.S.A.

Now
29 °F

More clouds than sun.


Feels Like: 25 °F
Forecast: 24 / 39 °F
Wind: 3 mph from North

Location: Yeager Airport

Current Time: Dec 19, 2014 at 10:29:49 AM

Latest Report: Dec 19, 2014 at 9:54 AM


Visibility: 8 mi

Pressure: 30.30 "Hg

Humidity: 75%

Dew point: 22 °F

Location of CharlestonLocation

Historic Weather in Charleston — Graph

°F

Charleston temperature yesterday

Maximum temperature yesterday: 33 °F (at 12:54 AM)
Minimum temperature yesterday: 29 °F (at 7:54 AM)
Average temperature yesterday: 31 °F

Past Weeks' High & Low Weather Summary

 TemperatureHumidityPressure
High57 °F (Dec 5, 3:54 PM)97% (Dec 4, 8:54 PM)30.57 "Hg (Dec 4, 8:54 PM)
Low28 °F (Dec 13, 2:54 AM)34% (Dec 8, 12:54 PM)29.81 "Hg (Dec 16, 7:54 AM)
Average39 °F76%30.19 "Hg
* Reported Dec 4 8:54 AM — Dec 19 8:54 AM, Charleston, Weather by CustomWeather, © 2014

Note: Actual official high and low records may vary slightly from our data, if they occured in-between our weather recording intervals... More about our weather records

Advertising

Charleston weather history for previous 24 hours

 ConditionsComfort  
Time TempWeatherWind HumidityBarometerVisibility
8:54 AM
Dec 19
29 °FOvercast.3 mph72%30.30 "Hg9 mi
7:54 AM28 °FOvercast.3 mph78%30.28 "Hg9 mi
6:54 AM28 °FOvercast.3 mph78%30.27 "Hg10 mi
5:54 AM28 °FOvercast.No wind78%30.25 "Hg10 mi
4:54 AM28 °FPartly cloudy.No wind78%30.24 "Hg10 mi
3:54 AM29 °FOvercast.3 mph72%30.23 "Hg10 mi
2:54 AM30 °FOvercast.3 mph72%30.23 "Hg10 mi
1:54 AM29 °FOvercast.3 mph75%30.22 "Hg10 mi
12:54 AM30 °FOvercast.No wind72%30.23 "Hg10 mi
11:54 PM
Dec 18
30 °FMostly cloudy.3 mph69%30.23 "Hg10 mi
10:54 PM30 °FMostly cloudy.No wind72%30.23 "Hg10 mi
9:54 PM30 °FMostly cloudy.3 mph72%30.22 "Hg10 mi
8:54 PM30 °FOvercast.5 mph72%30.21 "Hg10 mi
7:54 PM30 °FOvercast.3 mph72%30.22 "Hg10 mi
6:54 PM31 °FOvercast.5 mph69%30.22 "Hg10 mi
5:54 PM31 °FOvercast.3 mph69%30.20 "Hg10 mi
4:54 PM31 °FOvercast.No wind69%30.20 "Hg10 mi
3:54 PM32 °FMore clouds than sun.5 mph66%30.22 "Hg10 mi
2:54 PM32 °FMostly cloudy.6 mph66%30.21 "Hg10 mi
1:54 PM32 °FOvercast.5 mph66%30.21 "Hg10 mi
12:54 PM32 °FOvercast.No wind66%30.22 "Hg10 mi
11:54 AM31 °FOvercast.No wind67%30.26 "Hg10 mi
10:54 AM31 °FOvercast.No wind69%30.28 "Hg10 mi
Weather by CustomWeather, © 2014

See weather overviewHow to use our weather pages